This demonstration page uses our WeatherBlox Daily Observations layout. Learn more.

Hourly Observations for February 4, 2020

Temp ( °F °C ) Dew Point ( °F °C ) Humidity (%) Winds ( mph kmh ) Pressure ( in mb ) Visibility ( mi km ) Precip ( " mm )
12:54 am 00:54 Cloudy 27 -2.8 15 -9.4 61 61 N 16 26 30.06 1018 10 16.0934 0 0
1:54 am 01:54 Cloudy 26 -3.3 15 -9.4 63 63 N 17 28 30.06 1018 10 16.0934 0 0
2:54 am 02:54 Cloudy 25 -3.9 13 -10.6 60 60 NNE 16 26 30.08 1019 10 16.0934 0 0
3:54 am 03:54 Cloudy 24 -4.4 13 -10.6 62 62 NNE 20 31 30.08 1019 10 16.0934 0 0
4:54 am 04:54 Cloudy 24 -4.4 13 -10.6 62 62 N 21 33 30.11 1020 10 16.0934 0 0
5:54 am 05:54 Cloudy 25 -3.9 13 -10.6 60 60 N 16 26 30.14 1021 10 16.0934 0 0
6:54 am 06:54 Partly Cloudy 23 -5 11 -11.7 60 60 NNE 15 24 30.15 1021 10 16.0934 0 0
7:54 am 07:54 Cloudy 23 -5 12 -11.1 63 63 N 16 26 30.19 1023 10 16.0934 0 0
8:54 am 08:54 Cloudy 23 -5 11 -11.7 60 60 N 23 37 30.22 1023 10 16.0934 0 0
9:54 am 09:54 Cloudy 24 -4.4 10 -12.2 55 55 NNE 18 30 30.24 1024 10 16.0934 0 0
10:54 am 10:54 Cloudy 26 -3.3 9 -12.8 48 48 NNE 22 35 30.24 1024 10 16.0934 0 0
11:54 am 11:54 Cloudy 28 -2.2 9 -12.8 44 44 NNE 17 28 30.24 1024 10 16.0934 0 0
12:54 pm 12:54 Cloudy 29 -1.7 9 -12.8 43 43 NE 22 35 30.23 1024 10 16.0934 0 0
1:54 pm 13:54 Cloudy 29 -1.7 9 -12.8 43 43 NNE 23 37 30.23 1024 10 16.0934 0 0
2:54 pm 14:54 Cloudy 28 -2.2 11 -11.7 49 49 NNE 17 28 30.24 1024 10 16.0934 0 0
3:54 pm 15:54 Cloudy 28 -2.2 11 -11.7 49 49 NNE 18 30 30.27 1025 10 16.0934 0 0
4:54 pm 16:54 Cloudy 27 -2.8 10 -12.2 49 49 NNE 20 31 30.24 1024 10 16.0934 0 0
5:54 pm 17:54 Cloudy 25 -3.9 11 -11.7 55 55 NNE 16 26 30.27 1025 10 16.0934 0 0
6:54 pm 18:54 Cloudy 25 -3.9 10 -12.2 53 53 NNE 14 22 30.28 1025 10 16.0934 0 0
7:54 pm 19:54 Cloudy 25 -3.9 11 -11.7 55 55 NNE 14 22 30.28 1025 10 16.0934 0 0
8:54 pm 20:54 Cloudy 25 -3.9 11 -11.7 55 55 NNE 14 22 30.29 1026 10 16.0934 0 0
9:54 pm 21:54 Cloudy 24 -4.4 11 -11.7 57 57 NNE 14 22 30.31 1026 10 16.0934 0 0
10:54 pm 22:54 Cloudy 23 -5 11 -11.7 60 60 NNE 15 24 30.3 1026 10 16.0934 0 0
11:54 pm 23:54 Cloudy 22 -5.6 11 -11.7 63 63 NNE 13 20 30.27 1025 10 16.0934 0 0

Powered by AerisWeather